Location: Ay?beleni
(36.6500°N, 30.3000°E)
Time: 00:29:56
(UTC+00:00)

SPOT 3 Rocket - Pass Details

Date: 09 April 2020
Orbit: 778 x 795 km, 98.8° (Epoch: 25 May)

Event Time Altitude Azimuth Distance (km) Brightness Sun altitude
Exits shadow 17:42:05 21° 134° (SE) 1,738 4.8 -15.0°
Maximum altitude 17:45:18 45° 71° (ENE) 1,068 3.9 -15.6°
Drops below altitude 10° 17:50:14 10° 0° (N) 2,360 6.3 -16.5°
Sets 17:52:38 0° 354° (N) 3,290 7.2 -17.0°
